| time (UTC) | temp C | wind direction | speed KPH | gust KPH | rain 1hr cm | rain 24hr cm | rain mn cm | humidity % | barometer mb |
| 20260507180055 | 19 | 200 | 6.4 | 14.5 | 0.00 | 0.00 | 0.00 | 62 | 1011.3 |
| 20260507174546 | 20 | 200 | 8.0 | 16.1 | 0.00 | 0.00 | 0.00 | 63 | 1011.2 |
| 20260507173056 | 20 | 200 | 6.4 | 14.5 | 0.00 | 0.00 | 0.00 | 63 | 1011.3 |
| 20260507171552 | 20 | 200 | 9.7 | 24.1 | 0.00 | 0.00 | 0.00 | 63 | 1011.4 |
| 20260507170055 | 20 | 200 | 12.9 | 20.9 | 0.00 | 0.00 | 0.00 | 63 | 1011.4 |
| 20260507164544 | 20 | 200 | 16.1 | 25.7 | 0.00 | 0.00 | 0.00 | 63 | 1011.5 |
| 20260507163048 | 19 | 195 | 16.1 | 24.1 | 0.00 | 0.00 | 0.00 | 63 | 1011.5 |
| 20260507161551 | 20 | 181 | 12.9 | 27.4 | 0.00 | 0.00 | 0.00 | 63 | 1011.5 |
| 20260507160053 | 20 | 177 | 16.1 | 30.6 | 0.00 | 0.00 | 0.00 | 63 | 1011.4 |
| 20260507154548 | 20 | 182 | 14.5 | 32.2 | 0.00 | 0.00 | 0.00 | 63 | 1011.4 |
| 20260507153102 | 20 | 167 | 12.9 | 24.1 | 0.00 | 0.00 | 0.00 | 63 | 1011.4 |
| 20260507151542 | 20 | 159 | 11.3 | 22.5 | 0.00 | 0.00 | 0.00 | 63 | 1011.6 |
| 20260507150053 | 20 | 151 | 14.5 | 24.1 | 0.00 | 0.00 | 0.00 | 63 | 1011.7 |
| 20260507144545 | 20 | 153 | 12.9 | 20.9 | 0.00 | 0.00 | 0.00 | 63 | 1011.9 |
| 20260507143057 | 20 | 153 | 9.7 | 19.3 | 0.00 | 0.00 | 0.00 | 63 | 1011.9 |
| 20260507141548 | 20 | 153 | 12.9 | 17.7 | 0.00 | 0.00 | 0.00 | 63 | 1012.1 |
| 20260507140046 | 20 | 151 | 8.0 | 20.9 | 0.00 | 0.00 | 0.00 | 63 | 1012.0 |
| 20260507134541 | 20 | 150 | 12.9 | 20.9 | 0.00 | 0.00 | 0.00 | 63 | 1012.3 |
| 20260507133049 | 20 | 150 | 12.9 | 22.5 | 0.00 | 0.00 | 0.00 | 64 | 1012.3 |
| 20260507131549 | 20 | 148 | 11.3 | 19.3 | 0.00 | 0.00 | 0.00 | 64 | 1012.4 |
| 20260507130100 | 20 | 147 | 9.7 | 20.9 | 0.00 | 0.00 | 0.00 | 64 | 1012.6 |
| 20260507124552 | 20 | 146 | 11.3 | 22.5 | 0.00 | 0.00 | 0.00 | 64 | 1012.5 |
| 20260507123049 | 20 | 145 | 8.0 | 22.5 | 0.00 | 0.00 | 0.00 | 65 | 1012.9 |
| 20260507121554 | 20 | 140 | 9.7 | 22.5 | 0.00 | 0.00 | 0.00 | 65 | 1013.2 |
| 20260507120047 | 19 | 131 | 9.7 | 24.1 | 0.00 | 0.00 | 0.00 | 65 | 1013.3 |
| 20260507114545 | 19 | 146 | 11.3 | 22.5 | 0.00 | 0.00 | 0.00 | 65 | 1013.4 |
| 20260507113052 | 19 | 152 | 8.0 | 20.9 | 0.00 | 0.00 | 0.00 | 66 | 1013.4 |
| 20260507111544 | 18 | 143 | 16.1 | 25.7 | 0.00 | 0.00 | 0.00 | 66 | 1013.2 |
| 20260507110056 | 19 | 103 | 14.5 | 24.1 | 0.00 | 0.00 | 0.00 | 66 | 1013.2 |
| 20260507104555 | 18 | 101 | 12.9 | 22.5 | 0.00 | 0.00 | 0.00 | 66 | 1013.1 |
| 20260507103112 | 18 | 98 | 11.3 | 19.3 | 0.00 | 0.00 | 0.00 | 67 | 1013.1 |
| 20260507101545 | 18 | 98 | 11.3 | 20.9 | 0.00 | 0.00 | 0.00 | 67 | 1013.3 |
| 20260507094553 | 17 | 98 | 8.0 | 17.7 | 0.00 | 0.00 | 0.00 | 67 | 1013.2 |
| 20260507093045 | 17 | 98 | 11.3 | 19.3 | 0.00 | 0.00 | 0.00 | 67 | 1013.3 |
| 20260507091544 | 17 | 98 | 9.7 | 19.3 | 0.00 | 0.00 | 0.00 | 67 | 1013.2 |
| 20260507090038 | 17 | 98 | 8.0 | 14.5 | 0.00 | 0.00 | 0.00 | 67 | 1013.3 |
| 20260507084548 | 17 | 98 | 4.8 | 9.7 | 0.00 | 0.00 | 0.00 | 67 | 1013.1 |
| 20260507083045 | 17 | 98 | 3.2 | 8.0 | 0.00 | 0.00 | 0.00 | 67 | 1012.9 |
| 20260507081544 | 17 | 98 | 3.2 | 6.4 | 0.00 | 0.00 | 0.00 | 68 | 1012.8 |
| 20260507080046 | 17 | 98 | 1.6 | 6.4 | 0.00 | 0.00 | 0.00 | 68 | 1012.7 |
| 20260507074540 | 17 | 98 | 3.2 | 4.8 | 0.00 | 0.00 | 0.00 | 68 | 1012.6 |
| 20260507073049 | 16 | 98 | 0.0 | 4.8 | 0.00 | 0.00 | 0.00 | 68 | 1012.5 |
| 20260507071549 | 15 | 98 | 1.6 | 4.8 | 0.00 | 0.00 | 0.00 | 68 | 1012.3 |
| 20260507064552 | 14 | 98 | 3.2 | 6.4 | 0.00 | 0.00 | 0.00 | 68 | 1012.1 |
| 20260507063044 | 13 | 98 | 0.0 | 1.6 | 0.00 | 0.00 | 0.00 | 67 | 1011.9 |
| 20260507061552 | 12 | 98 | 1.6 | 4.8 | 0.00 | 0.00 | 0.00 | 67 | 1012.0 |
| 20260507060044 | 13 | 98 | 3.2 | 4.8 | 0.00 | 0.00 | 0.00 | 67 | 1012.0 |
| 20260507054559 | 13 | 0 | 0.0 | 0.0 | 0.00 | 0.00 | 0.00 | 67 | 1011.6 |
| 20260507053059 | 13 | 98 | 1.6 | 3.2 | 0.00 | 0.00 | 0.00 | 67 | 1011.5 |
| 20260507051551 | 13 | 98 | 1.6 | 6.4 | 0.00 | 0.00 | 0.00 | 67 | 1011.4 |
| 20260507050050 | 14 | 98 | 1.6 | 4.8 | 0.00 | 0.00 | 0.00 | 67 | 1011.4 |
| 20260507044552 | 14 | 98 | 4.8 | 11.3 | 0.00 | 0.00 | 0.00 | 67 | 1011.2 |
| 20260507043039 | 14 | 98 | 4.8 | 9.7 | 0.00 | 0.00 | 0.00 | 67 | 1011.3 |
| 20260507041558 | 14 | 98 | 3.2 | 6.4 | 0.00 | 0.00 | 0.00 | 67 | 1011.4 |
| 20260507040045 | 14 | 98 | 1.6 | 6.4 | 0.00 | 0.00 | 0.00 | 67 | 1011.3 |
| 20260507034544 | 14 | 98 | 3.2 | 8.0 | 0.00 | 0.00 | 0.00 | 67 | 1011.3 |
| 20260507033053 | 14 | 98 | 4.8 | 12.9 | 0.00 | 0.00 | 0.00 | 67 | 1011.3 |
| 20260507031548 | 15 | 98 | 6.4 | 20.9 | 0.00 | 0.00 | 0.00 | 67 | 1011.1 |
| 20260507030052 | 15 | 98 | 6.4 | 17.7 | 0.00 | 0.00 | 0.00 | 67 | 1011.0 |
| 20260507024549 | 15 | 98 | 9.7 | 17.7 | 0.00 | 0.00 | 0.00 | 67 | 1011.0 |
| 20260507023051 | 15 | 98 | 6.4 | 14.5 | 0.00 | 0.00 | 0.00 | 67 | 1011.2 |
| 20260507021550 | 15 | 98 | 8.0 | 16.1 | 0.00 | 0.00 | 0.00 | 67 | 1011.1 |
| 20260507020106 | 15 | 98 | 6.4 | 20.9 | 0.00 | 0.00 | 0.00 | 67 | 1011.1 |
| 20260507014606 | 15 | 98 | 9.7 | 24.1 | 0.00 | 0.00 | 0.00 | 67 | 1011.1 |
| 20260507013056 | 15 | 96 | 12.9 | 25.7 | 0.00 | 0.00 | 0.00 | 67 | 1011.1 |
| 20260507011555 | 15 | 99 | 12.9 | 29.0 | 0.00 | 0.00 | 0.00 | 67 | 1011.2 |
| 20260507010046 | 15 | 98 | 11.3 | 27.4 | 0.00 | 0.00 | 0.00 | 67 | 1011.3 |
| 20260507004549 | 16 | 96 | 12.9 | 30.6 | 0.00 | 0.00 | 0.00 | 67 | 1011.4 |
| 20260507003038 | 16 | 94 | 12.9 | 27.4 | 0.00 | 0.00 | 0.00 | 67 | 1011.6 |
| 20260507001558 | 16 | 89 | 12.9 | 24.1 | 0.00 | 0.00 | 0.00 | 67 | 1011.6 |
| 20260507000057 | 16 | 87 | 14.5 | 29.0 | 0.00 | 0.00 | 0.00 | 67 | 1011.6 |
| 20260506234604 | 16 | 86 | 9.7 | 20.9 | 0.00 | 0.00 | 0.00 | 67 | 1011.7 |
| 20260506233049 | 16 | 86 | 12.9 | 30.6 | 0.00 | 0.00 | 0.00 | 67 | 1011.7 |
| 20260506231543 | 16 | 87 | 17.7 | 35.4 | 0.00 | 0.00 | 0.00 | 67 | 1011.9 |
| 20260506230100 | 16 | 75 | 14.5 | 30.6 | 0.00 | 0.00 | 0.00 | 66 | 1011.9 |
| 20260506224550 | 16 | 68 | 17.7 | 35.4 | 0.00 | 0.00 | 0.00 | 66 | 1012.0 |
| 20260506223044 | 16 | 94 | 14.5 | 27.4 | 0.00 | 0.00 | 0.00 | 66 | 1011.9 |
| 20260506221601 | 17 | 93 | 16.1 | 27.4 | 0.00 | 0.00 | 0.00 | 66 | 1011.9 |
| 20260506220047 | 17 | 91 | 14.5 | 25.7 | 0.00 | 0.00 | 0.00 | 66 | 1011.8 |
| 20260506214543 | 17 | 92 | 14.5 | 24.1 | 0.00 | 0.00 | 0.00 | 66 | 1012.0 |
| 20260506213054 | 17 | 92 | 14.5 | 27.4 | 0.00 | 0.00 | 0.00 | 66 | 1011.8 |
| 20260506211553 | 17 | 92 | 12.9 | 24.1 | 0.00 | 0.00 | 0.00 | 66 | 1011.7 |
| 20260506210047 | 17 | 92 | 11.3 | 25.7 | 0.00 | 0.00 | 0.00 | 66 | 1011.4 |
| 20260506204546 | 17 | 96 | 11.3 | 19.3 | 0.00 | 0.00 | 0.00 | 66 | 1011.4 |
| 20260506203044 | 18 | 98 | 11.3 | 20.9 | 0.00 | 0.00 | 0.00 | 66 | 1011.2 |
| 20260506201552 | 18 | 98 | 14.5 | 27.4 | 0.00 | 0.00 | 0.00 | 66 | 1011.3 |
| 20260506200047 | 18 | 117 | 11.3 | 20.9 | 0.00 | 0.00 | 0.00 | 66 | 1011.1 |
| 20260506194546 | 19 | 124 | 12.9 | 22.5 | 0.00 | 0.00 | 0.00 | 66 | 1010.9 |
| 20260506193051 | 20 | 162 | 11.3 | 22.5 | 0.00 | 0.00 | 0.00 | 66 | 1010.8 |
| 20260506191545 | 20 | 172 | 9.7 | 16.1 | 0.00 | 0.00 | 0.00 | 66 | 1010.6 |
| 20260506190043 | 20 | 173 | 4.8 | 9.7 | 0.00 | 0.00 | 0.00 | 66 | 1010.4 |
| 20260506184545 | 20 | 173 | 1.6 | 3.2 | 0.00 | 0.00 | 0.00 | 66 | 1010.3 |
| 20260506183051 | 20 | 173 | 4.8 | 8.0 | 0.00 | 0.00 | 0.00 | 65 | 1010.2 |
| 20260506181607 | 20 | 173 | 6.4 | 11.3 | 0.00 | 0.00 | 0.00 | 64 | 1010.3 |